Wind_Speed
23 23 24 25 26 26 25 24 22 20 18 17 17 18 18 17 15 13 12 12 13 13 13 12 12 14 14 14 14 13 13 12 12 12 11 11 10 9 8 8 8 9 9 9 9 9 10 10 10 9 9 10 10 10 10 11 12 12 12 11 10 9 9 8 7 5 4 4 4 4 3 3 4 6 7 7 7 7 7 8 8 9 9 10 11
24 25 25 26 27 27 26 26 24 22 20 19 18 18 19 18 17 15 13 12 12 13 13 12 12 13 15 16 15 14 13 13 13 12 12 12 11 9 8 8 8 9 9 8 8 9 10 10 10 9 9 10 10 10 10 11 12 12 11 11 10 9 8 8 7 5 4 4 4 4 4 4 4 6 7 7 7 7 7 8 9 9 10 10 12
27 28 28 28 28 28 28 27 26 24 22 20 20 19 19 19 19 17 15 14 13 12 12 12 12 13 15 16 16 15 14 14 14 13 12 12 12 11 9 8 8 9 9 8 8 9 9 9 9 9 8 9 10 10 10 10 11 12 11 10 9 8 7 7 6 5 4 4 5 4 4 4 5 6 7 7 7 7 7 8 8 9 10 11 12
28 30 29 29 30 30 29 29 27 26 24 22 21 20 20 20 20 19 18 16 14 13 13 12 12 13 14 15 16 16 15 15 15 14 13 12 12 12 10 9 8 9 9 9 8 9 9 9 9 9 8 9 9 9 9 10 11 11 11 10 9 8 7 6 6 5 4 4 4 5 5 5 5 6 7 7 7 7 7 8 9 9 10 11 13
27 28 29 30 30 30 30 29 29 27 25 23 22 21 21 21 21 20 20 19 17 15 15 14 13 13 14 14 14 15 16 16 15 15 14 13 13 12 11 10 9 9 9 9 9 9 9 9 9 9 8 8 9 9 9 10 10 10 10 9 8 8 6 6 6 4 4 4 4 5 5 6 6 7 7 8 7 7 8 8 9 9 10 11 13
27 26 26 28 29 29 29 29 29 27 26 24 23 22 21 22 23 22 22 21 20 18 17 17 15 15 14 14 13 14 16 17 17 16 15 14 13 12 11 10 9 9 9 9 9 9 9 9 9 9 9 9 9 9 8 9 10 10 9 8 8 7 6 6 6 4 4 4 5 5 6 7 7 7 8 8 7 7 8 9 9 9 10 11 12
30 29 27 27 28 28 28 28 28 27 27 26 24 23 22 22 23 24 24 23 23 20 19 19 19 17 16 15 15 14 15 17 18 17 15 15 14 13 12 10 10 10 10 9 9 9 10 9 9 9 9 9 9 9 8 9 9 9 8 7 7 7 6 6 6 5 4 5 6 6 6 8 8 8 8 8 8 8 9 9 9 9 10 11 12
31 32 31 30 29 28 27 28 28 28 27 27 26 25 24 23 23 25 26 25 25 23 21 22 22 20 18 16 16 15 16 17 18 18 17 16 15 13 12 10 9 10 11 10 9 10 10 10 9 9 9 9 9 8 8 8 9 9 8 7 6 6 6 6 6 5 5 6 7 7 7 8 9 9 9 8 8 9 9 9 9 10 10 11 12
32 33 33 33 32 31 29 28 29 28 27 27 27 26 25 24 24 25 27 27 27 26 24 24 23 22 21 19 17 17 17 18 19 19 19 18 16 13 12 10 9 10 11 11 10 10 10 10 9 9 9 9 9 9 8 8 9 9 8 7 5 5 5 6 7 7 6 7 8 8 8 9 9 9 9 9 8 9 10 9 9 10 11 12 12
32 33 33 33 33 34 32 31 31 30 28 27 27 27 26 26 26 26 27 29 29 28 26 24 24 24 24 23 20 19 19 19 18 19 20 19 17 14 12 10 10 11 11 11 11 10 10 10 9 9 9 9 9 9 8 8 8 8 8 7 6 4 4 6 7 8 8 8 9 10 10 9 10 9 9 9 9 10 10 9 10 10 11 12 13
32 33 32 32 34 34 34 33 31 31 30 28 27 28 27 27 28 28 28 29 30 30 28 25 24 24 26 26 24 22 21 21 19 19 20 20 19 17 13 10 11 12 12 12 11 10 10 10 10 9 9 9 9 9 8 8 8 9 8 7 6 5 4 5 7 9 10 10 10 10 10 10 10 9 9 8 9 10 10 10 10 11 11 13 14
33 34 32 33 34 33 34 35 33 32 31 29 29 29 29 29 29 29 29 29 30 30 28 26 25 24 25 26 27 25 23 23 22 20 19 19 20 18 15 12 12 13 14 13 11 11 11 11 10 10 10 10 10 10 9 8 8 9 9 8 7 6 5 5 6 8 10 10 10 10 10 11 10 9 9 8 9 10 10 10 10 11 12 13 15
34 34 33 34 34 32 33 35 34 33 31 31 32 32 31 30 30 30 30 30 30 30 28 27 25 24 24 26 28 27 25 25 24 21 19 19 20 19 17 14 13 14 15 14 12 11 12 12 12 11 11 10 10 10 9 8 8 9 9 9 7 6 5 5 6 7 9 11 11 11 11 11 10 10 9 9 9 9 10 10 11 11 12 13 14
35 35 34 35 35 33 33 34 34 34 33 32 33 33 31 30 30 31 31 30 30 31 29 27 26 24 23 24 26 27 27 27 26 23 20 18 18 19 18 16 15 16 17 15 12 12 12 13 12 12 12 11 11 11 10 9 9 9 10 9 8 7 6 6 6 7 8 10 11 11 11 11 10 10 9 9 9 9 9 10 11 12 12 13 14
36 36 36 36 36 34 33 34 35 35 34 33 33 34 33 30 30 31 31 31 31 31 30 28 26 25 24 23 24 27 28 27 28 25 21 19 18 19 19 18 17 17 18 16 13 12 12 13 13 13 12 12 12 11 11 11 10 9 10 10 9 7 6 6 6 7 8 10 11 12 12 11 10 10 9 9 9 9 10 10 11 11 12 12 13
38 37 37 37 37 35 34 35 35 34 34 34 34 35 34 31 29 30 33 33 33 32 31 30 27 25 24 23 23 26 28 28 29 26 22 20 18 18 19 18 18 19 19 18 15 13 13 13 13 13 13 13 13 12 12 12 11 10 10 10 9 8 7 7 7 8 9 9 11 12 12 11 10 9 9 9 10 10 10 10 10 11 11 12 13
40 39 38 39 38 36 35 35 34 34 34 34 34 34 34 33 30 32 35 35 34 33 32 30 27 26 25 24 24 26 28 29 30 27 24 21 19 18 19 17 18 20 20 19 16 14 13 13 13 13 13 14 14 13 13 12 12 11 11 11 10 9 8 8 8 9 9 9 10 11 11 10 10 9 9 9 9 10 9 9 9 10 11 12 13
42 40 39 40 39 37 36 35 34 34 34 34 35 35 35 34 33 35 37 37 36 34 32 31 28 27 27 26 25 26 28 30 31 29 24 21 20 19 18 17 18 20 21 20 17 15 15 14 14 14 14 15 14 14 13 13 12 11 11 11 11 10 9 8 9 10 10 9 9 9 9 9 9 9 9 9 9 9 9 8 9 9 11 12 13
44 42 40 40 40 38 36 34 33 33 34 34 35 35 35 36 37 37 37 38 37 35 33 32 30 28 29 29 27 26 28 32 33 30 24 21 21 20 19 18 18 20 21 21 18 16 16 15 15 15 15 15 15 14 13 13 12 12 11 12 11 10 10 9 9 10 11 9 8 8 8 8 8 8 8 8 8 8 7 8 8 9 11 12 13
45 43 41 41 41 39 37 35 33 33 34 34 33 33 34 36 38 38 38 38 38 36 35 34 31 30 32 32 29 27 29 32 33 31 26 23 22 21 20 20 20 20 21 21 19 17 17 17 16 16 15 15 15 15 14 13 12 12 11 11 11 11 10 9 9 10 11 9 8 7 7 7 8 7 7 7 8 7 7 8 8 9 11 12 14
45 44 42 42 42 40 38 36 34 35 36 35 33 32 32 34 36 37 37 38 38 37 36 35 33 33 35 35 32 29 30 32 34 33 29 26 24 22 21 21 21 21 22 22 20 18 18 18 18 17 16 15 15 15 14 13 12 12 11 11 11 11 10 9 9 10 10 9 8 7 7 7 7 7 6 7 7 7 7 8 9 10 11 12 14
44 44 43 43 43 41 40 38 37 37 38 38 35 33 33 34 34 35 37 38 38 37 36 36 36 36 37 37 34 31 31 32 34 34 31 28 24 22 21 23 23 22 22 23 21 19 19 19 18 17 16 15 15 16 15 14 13 12 11 11 11 11 10 9 9 9 10 9 8 7 7 7 7 7 7 6 6 7 7 8 9 10 11 13 14
43 43 43 44 43 42 41 40 39 39 40 39 36 35 35 34 34 35 38 40 39 38 38 38 38 38 39 39 36 33 33 33 34 36 33 29 25 24 24 24 24 23 22 23 22 20 19 20 19 18 17 16 16 16 16 15 14 13 12 12 12 11 10 9 9 9 9 8 8 8 8 8 7 7 7 7 6 7 7 9 10 11 13 14 15
41 42 42 44 44 42 42 42 41 41 41 40 39 37 35 34 35 37 40 42 41 40 41 41 40 41 41 41 37 34 35 35 36 37 34 30 26 26 27 25 24 24 24 24 23 20 20 21 20 19 17 17 17 17 17 16 15 14 13 12 12 12 11 9 8 8 8 8 7 7 8 8 8 8 8 7 7 7 8 9 11 13 14 15 15
39 41 41 43 43 43 43 43 42 43 42 41 40 39 36 35 37 39 40 42 42 41 42 43 43 43 42 41 38 35 36 36 37 37 35 33 30 29 29 27 26 24 24 26 25 22 22 22 22 20 18 17 18 18 18 17 16 15 14 13 12 12 12 10 9 8 8 8 7 7 8 8 9 9 8 7 7 7 8 10 12 14 15 15 15
38 39 40 41 43 43 44 43 43 44 44 41 39 39 37 35 36 39 39 40 41 43 44 43 43 43 42 41 38 35 35 36 37 38 37 36 35 33 32 30 29 26 25 27 26 24 23 23 23 22 19 19 19 19 18 18 17 16 15 14 13 12 12 11 10 9 8 8 8 8 8 8 9 9 9 8 8 9 10 11 13 14 15 15 15
37 39 39 40 42 43 44 43 43 45 45 42 40 39 37 34 34 37 38 38 39 42 45 43 40 42 43 42 39 36 35 36 38 39 38 38 37 34 33 32 31 30 29 28 27 25 25 24 25 23 21 20 20 19 19 19 18 17 15 15 14 12 12 12 11 10 9 8 8 8 8 8 9 9 9 10 10 11 12 13 13 14 15 15 15
37 38 38 39 41 43 44 44 44 46 46 44 42 39 39 36 33 35 37 38 38 38 42 43 41 42 45 44 40 36 35 37 39 39 39 39 38 36 36 35 33 32 31 29 28 27 26 25 26 25 23 21 20 20 20 20 20 18 17 16 14 12 12 12 12 12 11 9 9 9 9 9 10 10 11 11 12 13 13 13 13 14 14 14 15
36 37 38 38 39 41 44 45 45 46 46 45 43 41 41 40 37 35 35 36 37 37 39 44 44 44 45 43 39 36 34 36 39 40 40 40 40 40 40 38 35 32 32 31 29 29 29 27 26 26 24 23 22 21 21 21 21 20 18 17 15 13 12 12 13 12 12 11 10 10 10 10 10 11 12 12 13 13 13 13 13 13 14 14 15
34 36 37 38 38 39 42 44 47 48 47 46 44 42 44 44 41 39 36 36 37 36 38 42 43 44 44 43 40 37 35 35 38 41 41 41 41 42 42 40 37 35 34 33 31 31 31 29 28 28 26 25 24 23 23 23 23 21 20 19 17 15 14 14 14 13 13 12 12 12 11 11 11 11 11 12 12 12 12 12 13 13 14 15 16
30 32 34 36 37 38 39 42 46 49 49 48 46 45 45 45 44 41 39 39 37 35 36 39 41 42 43 43 42 39 37 36 37 40 42 42 42 42 43 42 40 38 36 35 33 32 33 32 31 30 28 27 26 25 24 24 24 24 22 20 19 17 16 16 16 15 14 14 13 13 13 12 11 11 11 11 11 11 11 12 12 13 15 16 17
26 28 31 33 34 36 37 39 43 47 50 50 48 48 47 47 46 43 40 40 39 36 36 38 40 42 43 43 42 40 40 39 39 39 41 43 43 43 44 44 42 40 38 37 35 33 34 35 33 32 31 30 28 27 26 26 26 26 24 22 22 20 19 19 19 17 16 16 15 15 15 14 13 12 11 11 11 11 12 12 13 14 15 17 18
25 26 28 30 32 34 36 38 41 44 48 50 49 48 47 47 47 45 43 42 41 38 38 39 39 40 42 43 42 41 40 40 40 40 41 44 45 45 45 46 44 42 41 39 37 35 36 37 36 34 33 32 30 29 28 27 28 28 26 25 24 23 22 21 21 20 19 19 18 17 17 17 16 14 13 12 12 12 13 13 14 15 16 17 18
25 26 28 30 31 33 35 37 40 42 45 49 50 48 47 47 48 49 48 46 42 40 40 40 40 41 41 42 42 42 40 40 41 41 41 43 47 47 46 47 46 44 43 42 39 37 36 38 38 37 36 34 33 32 31 30 30 30 29 28 26 25 25 24 23 23 22 22 21 20 20 20 19 18 17 16 15 14 14 15 15 16 17 18 19
25 27 29 30 31 33 34 35 38 41 44 46 48 46 45 46 48 51 52 50 48 45 43 42 41 41 41 42 43 44 42 42 42 42 42 44 47 48 47 47 48 46 45 44 42 39 38 39 40 40 39 37 35 34 34 33 32 32 31 31 29 28 27 26 26 26 26 26 25 23 23 22 21 21 20 20 19 18 17 16 16 17 18 19 20
25 26 27 28 29 31 33 34 37 40 43 45 46 46 44 43 44 47 50 52 52 50 46 44 44 43 43 43 44 45 44 44 44 43 43 46 48 49 48 47 48 48 47 47 45 43 41 40 41 42 41 40 38 36 36 35 34 34 34 33 32 31 30 29 29 28 28 29 28 26 25 25 24 23 23 22 22 21 20 19 19 19 19 20 20
26 26 26 26 27 29 32 35 37 39 42 45 47 49 50 48 46 47 49 51 53 52 51 49 48 47 46 43 44 45 46 47 47 45 45 47 48 48 48 49 50 50 50 50 48 47 45 42 42 43 44 43 41 39 37 37 36 36 36 35 35 34 33 33 32 31 31 30 31 30 28 27 26 25 25 25 25 24 23 22 22 22 22 22 22
24 24 24 25 27 28 31 35 37 40 44 46 47 50 52 53 52 51 51 51 51 51 53 54 52 50 48 47 46 46 47 48 49 48 47 48 48 48 49 51 51 51 52 53 52 50 49 47 45 45 45 45 45 42 40 39 38 37 37 37 37 37 37 36 36 35 34 33 32 32 30 29 28 27 26 27 27 26 25 24 24 24 24 24 24
22 22 22 23 25 28 31 34 36 40 44 47 49 51 53 54 55 55 55 55 53 51 51 55 55 52 50 51 49 46 45 46 49 50 50 50 50 49 50 52 53 53 52 53 54 52 52 51 49 48 48 47 47 46 44 42 41 39 38 38 38 39 40 39 38 38 38 36 34 34 33 32 31 29 29 29 29 28 27 26 26 25 26 26 25
19 20 20 21 23 26 30 33 35 37 42 46 50 53 54 55 56 57 58 58 58 58 56 54 54 52 52 53 52 47 45 46 47 49 51 52 51 51 51 52 54 56 54 54 55 55 54 54 52 51 51 50 49 48 47 46 45 42 41 41 41 41 41 41 41 41 41 40 38 37 35 34 33 32 31 31 30 30 30 29 28 27 28 28 27
17 17 18 20 22 25 28 30 32 33 36 41 47 51 54 56 57 58 58 59 60 61 61 58 55 53 52 53 55 51 48 48 46 45 47 52 52 51 52 54 54 55 56 57 57 56 56 58 55 53 53 52 51 51 50 49 49 47 46 45 44 43 43 44 43 44 44 43 42 41 39 38 37 35 34 32 31 32 32 31 30 30 30 30 29
16 17 18 19 21 24 26 27 28 28 29 34 41 46 50 53 55 56 57 58 59 60 61 60 59 58 54 53 54 54 53 52 48 41 40 45 49 49 50 53 54 54 57 58 59 56 56 58 58 56 55 55 54 54 53 53 52 51 50 50 48 47 46 46 46 45 46 46 46 45 44 42 41 40 37 34 33 33 34 33 33 33 33 32 31
17 18 19 20 21 23 24 24 24 26 27 29 34 40 44 48 51 53 54 55 57 58 59 59 60 61 60 58 57 56 55 55 53 48 42 42 44 45 46 48 50 52 55 57 60 58 55 57 59 59 59 58 57 57 56 55 55 54 52 51 51 51 50 49 48 47 47 48 47 48 48 46 44 43 41 39 36 36 36 36 35 36 35 34 34
17 18 19 20 21 22 23 22 22 23 26 28 31 35 39 42 45 48 51 52 54 56 57 57 58 60 62 63 63 62 59 56 56 56 52 48 46 45 46 47 49 51 53 55 57 58 57 58 59 59 60 60 60 60 57 57 58 57 55 53 53 55 55 52 51 50 50 50 49 48 49 49 46 44 44 43 41 40 40 39 38 38 37 36 36
16 17 18 19 20 21 22 21 21 21 23 27 30 33 35 37 40 43 45 47 50 52 54 55 56 57 59 62 64 66 64 60 58 58 57 54 52 47 44 46 49 51 53 54 55 56 58 59 59 59 60 61 62 62 60 60 61 60 59 56 53 55 57 56 54 53 53 52 50 50 50 49 48 47 45 45 45 44 44 42 41 40 39 38 38
15 16 16 17 18 20 21 21 21 21 22 24 27 30 32 34 35 38 40 42 44 47 50 52 53 54 55 57 60 63 65 63 62 61 59 57 56 53 48 46 46 48 51 52 54 55 57 59 59 59 60 62 62 62 61 62 63 62 63 62 59 57 56 57 57 56 56 55 52 52 51 49 49 49 47 47 47 47 47 45 44 43 42 41 41
15 15 16 16 17 18 19 20 20 21 22 22 24 26 29 30 32 34 36 37 38 41 44 48 50 51 52 53 56 59 62 62 60 62 62 60 59 58 56 53 51 50 49 50 52 55 57 60 60 59 60 62 62 62 61 62 63 62 62 64 66 64 60 59 59 58 58 57 56 55 53 50 50 51 50 50 50 50 48 47 46 45 44 43 43
16 17 17 17 17 17 18 19 19 20 21 22 23 24 25 27 28 31 33 35 36 37 39 42 46 48 49 50 52 54 57 58 58 60 62 62 61 61 60 59 58 57 55 54 54 54 56 58 60 61 61 62 63 62 61 61 62 61 60 62 65 67 65 63 63 62 60 58 57 57 55 54 54 53 53 53 53 52 51 49 48 47 46 45 45
17 18 18 18 18 18 18 19 19 20 20 21 22 23 24 25 26 27 29 32 35 37 38 39 41 44 46 48 49 51 53 54 55 57 59 60 61 62 62 62 61 61 60 60 59 58 57 57 57 57 59 61 63 63 61 60 60 61 62 61 61 64 67 67 66 65 64 61 59 57 55 56 57 56 55 55 54 52 52 53 52 50 49 49 48
18 18 18 18 19 19 19 20 20 20 21 21 21 22 23 25 26 26 27 29 31 34 37 38 40 42 44 45 47 49 51 52 53 54 56 58 59 60 61 62 62 63 63 63 63 62 62 61 60 58 58 58 60 61 61 61 61 61 62 60 57 58 64 67 66 67 67 66 63 59 56 54 55 56 58 58 56 54 53 54 54 54 52 51 50
19 19 20 20 20 20 21 21 21 21 22 22 22 23 23 24 25 27 28 29 30 32 34 37 39 41 43 44 46 48 49 51 52 53 54 56 57 59 60 61 61 62 63 64 65 65 65 66 65 65 63 62 62 61 61 62 62 62 62 61 59 57 59 62 64 66 68 68 66 65 62 58 54 55 58 60 59 55 53 54 54 54 54 53 52
Wind_Direction
240 244 248 251 253 254 254 252 252 252 252 252 255 258 259 259 260 261 263 267 271 274 275 277 280 279 275 271 269 269 270 270 271 273 276 276 278 283 289 295 299 302 307 311 314 314 316 318 319 322 325 327 331 333 336 340 341 340 340 339 338 339 338 334 326 311 280 289 307 309 314 325 334 334 330 334 343 347 348 352 353 350 350 347 343
242 245 247 249 249 250 251 250 250 249 248 248 249 253 256 258 257 258 258 260 264 268 272 277 281 284 282 278 275 273 273 272 270 269 272 275 275 277 283 292 297 299 304 306 307 309 312 313 314 317 322 326 329 331 337 342 341 339 338 338 338 338 336 331 325 310 280 293 314 314 312 316 326 327 325 329 337 342 345 350 352 349 347 344 340
245 246 246 246 246 246 247 247 247 246 245 244 244 247 250 254 255 255 255 255 258 262 267 274 278 281 283 282 281 279 277 275 272 269 270 274 276 276 279 286 291 294 298 298 300 304 306 308 308 311 318 324 326 329 338 343 341 338 338 338 339 335 332 329 323 310 282 294 314 314 308 308 318 323 321 325 331 338 341 346 349 348 345 341 339
246 246 245 245 243 242 242 244 245 245 243 241 241 242 244 248 251 252 253 253 254 257 261 267 272 274 277 278 281 282 280 276 273 270 270 272 273 275 277 280 283 287 290 291 294 298 301 303 303 306 315 322 323 326 337 343 340 337 336 337 338 334 329 325 318 307 285 290 307 309 308 308 314 319 318 320 326 334 338 341 346 346 344 340 338
247 249 248 248 246 243 241 242 243 244 244 242 241 241 242 245 248 250 251 252 252 253 256 262 267 267 269 270 274 278 278 275 273 270 269 270 270 270 272 277 280 281 285 287 291 295 297 299 299 304 313 317 318 325 337 342 338 335 334 336 338 335 330 324 315 306 287 283 295 304 307 307 309 311 312 314 321 331 336 339 343 345 343 339 338
252 254 255 255 255 252 248 246 245 246 247 246 243 243 244 247 248 250 251 252 253 252 254 258 263 264 265 265 265 268 271 272 271 268 266 267 266 266 269 274 279 281 282 284 288 292 293 294 297 304 310 314 316 324 336 340 335 332 331 333 338 340 335 326 316 305 290 281 284 296 303 303 304 305 305 308 316 328 335 338 342 343 342 338 337
252 252 256 258 261 261 257 256 254 252 252 251 249 246 246 249 251 252 253 254 255 255 255 257 260 264 266 265 262 260 262 266 268 267 265 263 261 262 265 271 278 282 282 283 287 289 290 290 296 304 307 311 314 321 332 336 332 328 327 329 336 345 340 327 317 306 293 284 282 289 296 299 300 300 300 303 312 326 334 338 341 341 339 336 336
255 251 251 253 257 258 258 258 258 257 256 255 255 252 249 249 252 255 256 257 258 258 257 257 260 264 266 266 262 258 256 259 265 268 266 262 258 259 263 268 274 279 281 283 284 285 286 287 292 300 303 306 311 318 328 332 329 323 320 321 329 345 342 326 317 310 298 289 286 286 290 293 296 296 297 302 310 324 332 337 338 338 337 336 336
260 256 253 252 252 252 254 255 254 254 254 255 256 255 253 250 250 254 257 258 259 259 258 257 261 265 266 265 261 257 252 250 258 267 268 264 261 259 263 268 270 273 277 279 279 278 280 282 288 294 296 302 309 315 322 326 324 318 314 313 320 338 339 324 313 309 302 293 290 288 287 288 290 292 295 300 309 321 329 334 336 335 335 335 336
262 261 259 257 256 253 254 254 252 252 253 253 255 256 255 253 250 250 254 258 260 260 259 259 261 264 266 265 261 254 247 245 250 260 266 267 266 261 259 265 269 268 270 272 273 272 273 277 282 289 292 298 304 307 313 319 319 313 309 305 308 323 328 318 309 305 302 298 294 290 286 284 285 288 292 298 307 319 327 330 333 333 332 334 334
261 262 262 261 260 257 257 257 257 257 255 254 256 257 257 256 253 249 251 255 259 261 261 261 262 264 265 265 262 252 244 242 244 251 261 265 265 262 260 263 263 264 265 264 266 268 270 271 274 282 286 292 296 298 305 314 315 310 303 297 298 306 313 312 309 306 303 301 299 292 286 282 281 284 290 296 304 316 324 326 329 330 329 332 333
259 260 261 261 261 259 259 259 259 259 258 256 255 255 256 256 254 251 249 251 256 259 260 261 263 264 266 265 261 254 245 241 241 245 254 259 260 261 261 261 258 260 262 260 259 261 265 266 268 273 278 283 288 291 298 307 311 307 299 292 290 296 301 307 310 309 305 301 299 295 287 282 280 282 288 293 301 313 321 323 325 326 327 331 334
258 259 259 261 262 260 258 259 259 258 258 257 256 255 254 254 254 252 248 248 252 256 258 259 261 265 267 266 262 258 248 241 241 245 249 253 257 259 258 257 257 257 258 257 254 254 259 262 265 267 270 276 280 284 290 298 304 302 295 289 285 290 295 299 305 308 306 300 295 291 286 281 280 282 287 291 300 310 318 322 322 324 328 332 334
258 258 258 259 261 260 259 259 259 257 258 258 258 259 259 256 255 251 247 245 248 251 254 257 259 263 267 269 266 259 251 244 244 246 248 249 256 260 257 254 254 254 256 255 252 251 255 259 262 264 266 270 275 278 283 289 295 297 292 287 282 284 290 294 299 302 304 299 292 287 282 279 278 282 288 292 300 310 318 322 323 325 329 332 335
255 255 256 256 258 258 258 258 258 257 256 257 258 261 263 260 256 252 245 241 243 247 251 254 257 260 265 271 268 260 254 250 248 249 249 250 256 261 259 256 254 253 255 256 253 251 253 257 260 262 264 268 274 277 278 281 286 290 289 285 282 281 286 291 296 297 297 296 290 284 280 277 277 282 290 296 302 313 321 324 325 327 329 331 335
251 252 253 255 256 255 255 257 257 256 255 255 257 261 263 262 258 253 244 238 240 243 248 251 254 259 263 268 269 261 254 252 251 251 249 252 257 259 259 259 258 255 256 256 256 254 254 256 259 261 262 265 272 275 276 277 279 285 287 286 282 279 283 288 294 295 292 290 288 284 281 278 279 285 293 299 305 315 323 325 327 328 328 331 335
248 249 250 252 254 254 254 255 255 257 257 255 257 261 262 260 258 253 244 237 237 239 243 248 250 255 258 263 267 263 255 251 252 251 250 253 255 257 258 258 258 258 256 256 256 256 257 258 259 261 262 263 267 271 274 274 275 280 285 286 285 280 281 286 293 296 290 285 283 283 282 279 280 287 295 301 308 317 323 326 327 326 326 329 334
245 245 247 250 252 253 253 254 254 258 259 257 258 261 262 260 256 252 245 237 235 236 240 243 246 250 254 257 262 261 254 250 251 250 250 253 251 252 255 253 255 257 256 256 256 256 258 260 259 258 259 261 263 267 271 271 271 275 281 286 286 283 282 284 291 296 291 283 278 278 279 278 280 289 299 304 311 318 322 324 323 323 324 328 333
243 242 243 246 249 251 252 253 254 256 258 258 260 261 262 260 252 248 244 238 235 236 238 241 242 246 252 254 257 260 255 248 248 249 248 250 252 254 255 249 249 254 256 256 255 256 257 257 256 255 255 258 261 264 267 268 268 269 275 283 287 287 284 284 290 296 292 281 272 272 272 273 280 290 300 305 311 316 317 318 318 320 324 328 333
241 240 241 243 246 248 250 250 252 253 254 256 259 259 260 259 249 243 241 238 236 237 237 240 241 244 250 253 255 260 259 251 248 249 246 245 248 252 253 247 244 250 255 256 254 254 253 251 251 251 253 256 258 261 264 266 266 265 268 277 285 288 288 285 290 298 295 282 269 266 264 268 275 284 295 302 307 310 310 312 315 319 324 327 331
240 239 238 240 243 245 246 248 248 250 251 253 255 254 256 258 249 239 237 237 238 239 239 241 244 246 250 254 255 257 261 255 248 247 246 240 239 241 245 247 247 248 252 254 254 251 251 250 249 250 252 255 258 260 263 265 264 262 263 270 279 285 289 286 288 299 300 287 272 264 260 263 269 275 284 292 298 302 305 311 315 319 323 327 331
240 238 236 237 240 242 244 245 245 247 250 251 253 253 252 255 248 238 235 236 239 240 241 243 246 249 252 254 255 256 260 257 248 245 243 238 238 239 240 247 250 250 250 252 251 250 251 252 250 249 250 252 256 259 261 263 263 261 260 264 271 278 284 286 286 297 303 293 279 270 265 264 265 269 278 285 292 299 305 311 315 319 323 328 333
242 238 236 236 238 240 242 243 243 244 247 249 254 254 250 249 246 240 235 234 237 241 242 244 245 249 252 254 255 256 259 257 248 244 241 237 238 240 239 242 247 250 251 252 251 249 250 251 250 247 246 247 251 254 257 260 261 261 259 260 265 270 276 281 283 291 301 299 288 279 275 271 271 274 281 287 293 300 305 309 314 319 325 331 336
245 240 236 235 236 238 240 242 242 244 245 247 252 254 251 247 245 243 239 236 236 239 241 244 245 247 251 254 255 255 258 256 247 242 240 236 236 240 241 240 242 246 249 250 252 251 248 248 248 246 244 243 245 248 252 256 259 260 259 259 261 266 270 274 277 282 291 297 294 288 284 282 283 284 284 287 293 299 304 309 315 321 327 332 337
248 244 239 236 235 237 238 240 242 243 245 246 248 252 254 250 244 242 244 243 241 240 239 241 244 246 249 252 254 255 258 256 247 241 239 235 233 237 240 239 240 245 246 246 249 249 247 246 246 245 242 240 240 243 247 250 255 257 258 259 259 262 267 269 272 275 279 287 289 288 287 288 291 291 289 289 293 299 305 312 317 321 326 330 335
249 247 243 238 236 236 237 239 240 243 245 246 247 249 253 255 247 242 247 249 247 246 243 240 241 245 247 249 252 254 257 255 245 241 240 236 232 233 236 236 237 245 248 246 246 247 247 246 245 243 240 238 238 239 242 245 250 253 255 258 258 260 264 267 268 271 274 279 283 284 285 288 292 293 294 296 298 303 308 313 317 320 324 328 332
251 250 247 242 238 237 238 238 239 241 244 245 245 246 251 256 250 244 247 250 250 249 246 243 241 242 244 245 247 251 255 253 246 241 240 239 236 236 238 236 237 243 245 244 245 246 246 246 245 243 239 238 237 236 238 241 245 248 251 254 257 258 262 265 266 267 269 273 277 281 284 286 288 291 294 297 302 306 310 313 316 318 321 325 328
251 252 250 247 241 238 238 238 238 240 242 243 244 245 248 251 249 246 246 250 252 249 246 245 243 242 242 243 244 247 252 253 247 242 240 240 238 237 238 236 236 241 243 242 243 245 245 245 246 244 240 238 237 235 235 237 241 244 246 250 254 256 259 264 266 266 266 268 272 277 281 284 287 288 292 296 301 306 310 313 315 317 320 323 327
250 252 253 252 247 242 240 239 239 240 241 242 242 243 244 246 248 249 250 252 253 251 248 246 245 244 242 241 241 243 248 251 248 244 242 242 239 237 238 235 234 238 241 241 242 243 243 244 245 244 241 239 237 235 234 235 238 240 243 247 250 253 257 262 266 266 266 267 267 269 272 277 282 286 290 295 300 306 310 312 314 317 321 324 327
252 252 253 255 253 249 244 241 240 240 241 241 241 241 242 244 247 248 250 253 253 253 251 247 245 245 242 241 240 239 242 248 249 246 244 244 242 240 240 239 236 235 237 239 240 242 242 242 243 244 242 239 237 235 234 235 236 237 240 245 248 250 254 258 263 266 268 268 267 266 267 269 275 280 286 291 297 303 307 309 313 318 322 324 327
254 254 254 255 256 254 250 246 242 241 241 241 240 240 242 244 247 247 249 251 252 254 251 246 244 243 242 243 241 238 239 244 248 249 247 245 244 242 241 242 241 238 237 238 239 242 243 242 242 242 242 240 237 236 235 235 236 236 237 242 246 249 251 255 259 262 266 269 270 270 270 270 271 275 281 287 292 297 301 305 311 317 320 322 324
255 254 254 254 255 255 254 250 247 244 243 242 240 240 241 243 246 248 249 250 251 253 249 244 243 243 243 243 242 240 240 242 245 248 248 245 243 243 242 242 242 241 239 239 239 241 243 244 242 242 243 241 239 237 236 234 235 236 236 238 243 247 248 252 256 258 261 266 269 272 274 274 274 275 278 283 289 294 299 304 309 313 315 317 320
256 257 257 256 255 255 254 253 250 247 246 246 245 243 242 242 244 245 247 248 249 248 245 244 245 244 243 243 242 241 242 244 247 247 247 244 240 242 243 242 242 241 240 240 238 238 243 245 245 244 244 244 241 239 238 236 235 236 236 237 240 244 246 250 255 258 259 261 265 268 272 274 276 277 277 279 283 289 294 300 304 308 310 313 316
262 262 263 263 261 260 259 256 254 251 248 248 249 248 245 244 244 243 244 245 246 245 244 245 246 245 245 243 242 243 243 245 248 247 246 244 239 240 243 243 242 241 241 241 239 238 241 245 247 246 245 245 243 241 242 240 237 236 236 237 238 242 245 249 252 256 259 260 261 263 266 269 272 276 277 278 278 281 285 291 297 301 305 309 313
269 268 268 268 267 265 263 260 256 253 250 250 251 251 248 247 247 247 245 244 243 243 245 247 245 244 245 243 241 242 242 242 246 246 245 245 242 240 241 243 243 242 241 241 240 239 240 243 246 248 247 246 245 243 244 243 241 240 239 237 238 240 243 247 250 254 257 259 259 260 262 265 268 272 275 278 279 281 283 286 291 296 300 305 310
273 271 270 269 267 264 262 259 256 252 249 248 248 246 244 244 245 246 245 244 243 242 244 248 247 244 243 243 242 243 242 241 244 246 245 245 244 242 241 243 244 243 241 240 240 239 239 241 244 247 248 248 246 245 245 245 244 244 243 241 240 239 241 245 248 252 255 258 260 260 262 266 268 271 274 277 280 283 286 289 291 295 299 303 307
274 273 274 273 270 268 265 261 257 253 250 248 246 245 243 242 243 243 244 245 244 243 244 246 247 244 243 244 244 245 245 242 243 245 245 246 245 244 243 243 244 245 243 241 239 238 238 239 241 245 248 249 248 246 245 245 245 245 246 245 244 242 242 243 246 249 252 256 259 261 262 265 268 271 273 276 279 281 285 289 292 295 299 302 305
274 275 276 276 275 274 271 266 261 255 252 249 247 245 244 243 242 243 244 244 243 245 246 245 245 245 243 242 243 245 245 244 243 243 245 246 245 244 245 245 245 245 244 243 241 239 238 238 239 241 244 247 248 247 245 244 245 245 246 246 247 246 246 245 246 248 250 252 256 260 262 263 265 268 270 274 277 280 284 287 290 294 297 300 302
276 277 279 281 282 281 277 272 266 258 253 250 247 245 245 244 242 242 243 243 241 243 245 244 243 244 243 240 241 245 246 245 246 246 246 247 247 246 247 247 245 245 246 246 244 242 240 239 238 239 241 244 247 247 246 245 244 245 246 246 247 247 248 248 249 249 250 251 252 256 259 261 263 265 268 270 274 278 282 285 288 290 292 295 297
282 284 286 290 293 292 287 280 271 262 254 250 248 246 245 245 245 244 244 243 242 242 244 245 243 244 243 240 240 244 247 246 246 248 249 250 249 248 249 248 245 244 245 246 246 245 243 240 239 239 240 241 244 246 247 247 246 245 245 246 246 247 248 249 250 251 252 252 253 254 256 258 261 263 265 268 271 274 277 281 285 287 288 289 292
294 297 299 300 303 303 299 289 277 268 259 252 249 247 246 245 245 245 244 244 244 244 246 246 243 243 244 242 241 244 246 245 245 247 251 251 250 249 248 247 245 244 243 243 243 244 244 243 241 241 240 240 242 244 246 248 249 247 245 246 246 247 248 250 250 251 252 253 254 254 255 256 258 260 262 265 269 272 274 278 282 283 284 285 287
304 306 307 309 311 311 308 297 283 275 268 258 253 250 248 246 246 246 245 245 245 246 247 247 244 244 244 242 243 244 245 245 244 246 249 249 247 247 246 245 246 245 242 242 242 242 243 244 243 242 241 241 241 242 244 246 249 249 248 248 247 247 247 249 250 252 253 254 255 255 255 255 256 258 260 261 265 268 271 274 276 278 281 283 285
308 310 311 313 314 315 313 303 288 277 272 265 259 255 253 250 248 248 247 246 245 246 247 248 247 246 245 244 244 245 245 244 243 244 246 246 243 242 241 242 246 245 242 242 242 241 243 244 243 241 241 241 240 241 243 244 246 248 248 250 251 250 249 249 250 251 253 255 256 257 257 256 256 257 258 260 261 264 266 268 270 273 277 280 282
311 312 313 313 315 315 312 306 294 280 272 266 262 259 257 255 253 251 251 249 248 247 248 249 249 248 248 248 248 247 245 244 244 244 246 247 244 241 240 240 242 243 242 242 242 242 242 243 242 241 241 241 241 242 244 244 245 246 248 251 254 254 253 253 251 251 252 254 256 258 260 260 260 259 259 260 260 261 263 265 267 269 272 275 278
314 313 314 314 313 312 310 306 298 287 277 270 265 262 259 257 256 256 256 255 253 251 250 251 251 250 250 251 252 251 249 247 247 246 246 246 244 242 240 239 240 241 242 244 244 243 243 243 243 242 241 242 243 244 246 247 246 246 246 249 253 254 253 254 254 253 254 254 255 257 259 261 263 263 262 262 262 262 262 263 265 267 269 272 274
320 318 317 315 313 311 308 304 299 291 284 276 271 267 263 260 257 256 257 258 258 256 254 254 254 254 253 253 254 254 253 253 254 252 250 249 248 246 244 242 240 240 241 243 244 244 244 244 245 244 242 243 245 247 248 249 249 248 247 248 251 252 251 252 254 255 256 257 257 257 258 260 263 264 265 265 265 264 264 264 265 265 267 268 270
326 324 323 320 318 314 310 306 301 295 288 282 277 273 270 267 263 259 257 256 257 258 258 257 256 256 256 256 257 257 257 258 259 258 257 257 256 254 252 251 248 245 243 242 243 244 245 245 246 246 244 244 247 248 249 249 250 251 250 249 250 250 250 250 252 253 255 256 257 259 260 260 261 263 264 264 265 266 267 267 267 267 267 267 268
327 327 326 325 323 320 316 311 307 302 297 291 286 281 277 273 270 266 262 258 255 255 257 258 259 258 258 258 258 259 259 260 262 261 260 261 261 260 259 258 257 255 252 248 245 244 244 245 246 247 246 245 247 248 249 249 250 250 251 250 249 248 249 250 251 252 254 256 257 259 260 260 261 262 263 263 264 266 267 268 268 269 269 269 268
325 325 324 324 324 323 321 318 314 310 306 301 296 290 286 282 277 273 270 265 261 257 255 255 256 258 258 258 259 260 260 261 262 262 261 262 262 262 262 262 261 260 259 256 252 249 247 247 247 248 248 247 247 248 248 249 251 250 250 251 251 250 249 250 251 252 253 255 257 259 261 260 260 261 262 262 262 264 266 268 268 269 269 270 270
323 322 322 321 321 321 320 319 318 316 313 309 305 300 295 291 286 282 277 273 269 265 261 257 255 255 255 256 257 259 260 261 262 262 262 262 262 262 263 263 262 262 261 261 259 257 255 253 251 251 251 250 249 250 251 252 253 253 252 252 254 254 251 251 251 252 251 252 255 258 260 259 259 259 260 262 263 262 263 266 267 268 268 269 271
325 324 323 323 322 321 320 319 317 316 314 312 310 306 303 298 293 289 285 280 276 272 269 265 262 259 256 255 255 256 257 258 260 261 261 262 263 263 263 263 263 263 262 261 261 261 260 258 257 255 254 253 252 252 254 255 257 257 255 253 254 255 254 253 252 252 251 250 252 256 258 258 258 259 261 263 264 263 261 261 263 266 268 269 271
Height
5846 5847 5848 5849 5849 5850 5851 5852 5852 5853 5854 5854 5853 5853 5853 5853 5854 5854 5854 5854 5853 5854 5854 5855 5855 5855 5856 5856 5856 5856 5857 5857 5857 5856 5856 5856 5855 5855 5854 5854 5854 5853 5853 5853 5852 5852 5851 5850 5849 5847 5846 5845 5844 5843 5842 5840 5839 5838 5838 5837 5836 5835 5834 5834 5833 5832 5832 5832 5832 5832 5831 5831 5830 5830 5829 5828 5827 5827 5825 5824 5823 5822 5821 5820 5819
5843 5843 5844 5845 5846 5847 5848 5848 5849 5850 5851 5851 5851 5851 5851 5851 5851 5852 5852 5852 5852 5852 5853 5853 5853 5854 5854 5854 5854 5855 5855 5856 5856 5855 5854 5854 5854 5854 5853 5852 5852 5853 5853 5852 5851 5851 5850 5849 5848 5847 5846 5845 5843 5842 5841 5840 5839 5838 5837 5837 5836 5835 5834 5833 5833 5832 5832 5832 5832 5831 5831 5830 5830 5829 5828 5828 5827 5826 5825 5824 5823 5822 5821 5819 5818
5839 5839 5839 5840 5841 5842 5843 5845 5846 5847 5848 5848 5849 5849 5849 5849 5849 5849 5850 5850 5851 5851 5851 5851 5852 5852 5852 5852 5853 5853 5854 5854 5854 5854 5853 5853 5853 5852 5852 5851 5851 5852 5852 5851 5851 5850 5849 5848 5847 5846 5845 5844 5843 5842 5840 5839 5838 5837 5837 5836 5835 5834 5833 5833 5832 5832 5832 5832 5831 5831 5830 5830 5829 5829 5828 5827 5826 5826 5824 5823 5822 5821 5820 5819 5817
5835 5834 5835 5836 5837 5838 5839 5841 5842 5844 5845 5846 5846 5847 5847 5847 5847 5847 5847 5848 5849 5849 5849 5849 5850 5850 5850 5851 5851 5852 5852 5853 5853 5852 5852 5852 5852 5851 5850 5850 5850 5851 5851 5850 5850 5849 5848 5847 5847 5845 5844 5843 5843 5841 5840 5839 5838 5837 5836 5835 5835 5834 5833 5832 5832 5832 5831 5831 5831 5830 5830 5829 5829 5828 5828 5827 5826 5825 5824 5823 5822 5821 5819 5818 5817
5832 5833 5834 5834 5835 5836 5837 5838 5840 5841 5843 5844 5845 5845 5845 5845 5845 5845 5845 5846 5847 5847 5847 5847 5848 5848 5848 5849 5849 5850 5850 5851 5851 5851 5851 5851 5851 5850 5849 5849 5849 5849 5849 5849 5849 5848 5847 5847 5846 5845 5844 5843 5842 5841 5840 5838 5837 5836 5835 5835 5834 5834 5833 5832 5832 5831 5831 5831 5830 5830 5829 5829 5829 5828 5827 5826 5825 5825 5824 5823 5821 5820 5819 5818 5816
5832 5832 5834 5834 5835 5836 5837 5838 5839 5840 5842 5843 5844 5844 5844 5844 5844 5843 5843 5844 5844 5845 5846 5846 5846 5846 5847 5847 5848 5848 5849 5849 5849 5849 5849 5849 5849 5849 5848 5848 5848 5848 5848 5848 5848 5847 5847 5846 5845 5844 5843 5843 5842 5841 5839 5838 5837 5836 5835 5834 5834 5833 5833 5832 5831 5831 5830 5830 5830 5829 5829 5828 5828 5827 5826 5825 5825 5824 5823 5822 5821 5819 5818 5817 5815
5830 5831 5832 5833 5834 5835 5837 5838 5839 5840 5841 5842 5843 5843 5843 5844 5843 5843 5842 5842 5843 5843 5844 5844 5844 5845 5845 5846 5847 5847 5847 5847 5847 5847 5847 5847 5847 5847 5847 5847 5847 5847 5847 5847 5847 5846 5846 5845 5845 5844 5843 5842 5841 5840 5839 5837 5836 5835 5834 5834 5833 5832 5832 5832 5831 5830 5830 5830 5829 5829 5828 5828 5827 5827 5826 5825 5824 5824 5823 5822 5820 5819 5818 5816 5814
5828 5828 5828 5830 5831 5832 5834 5835 5836 5838 5839 5840 5841 5842 5842 5842 5842 5842 5842 5842 5841 5842 5842 5842 5842 5843 5843 5844 5845 5846 5846 5846 5845 5845 5845 5845 5845 5845 5845 5845 5846 5846 5846 5846 5846 5845 5845 5845 5844 5843 5842 5842 5841 5840 5838 5837 5836 5835 5834 5833 5832 5832 5832 5832 5831 5830 5830 5829 5829 5828 5828 5827 5827 5826 5825 5825 5824 5823 5822 5821 5820 5818 5817 5815 5814
5825 5825 5825 5827 5829 5830 5830 5831 5832 5834 5835 5837 5838 5839 5840 5841 5841 5841 5841 5841 5840 5840 5840 5840 5840 5841 5841 5842 5843 5844 5844 5844 5844 5844 5844 5843 5843 5843 5844 5844 5844 5845 5845 5845 5845 5844 5844 5844 5843 5842 5842 5841 5840 5839 5838 5837 5836 5834 5833 5833 5832 5831 5831 5831 5831 5830 5829 5829 5828 5828 5827 5826 5826 5825 5825 5824 5824 5823 5822 5820 5819 5818 5817 5815 5813
5822 5822 5823 5825 5827 5828 5828 5828 5829 5830 5832 5833 5835 5836 5837 5838 5838 5839 5839 5839 5839 5839 5838 5839 5839 5839 5839 5840 5841 5841 5842 5842 5842 5843 5842 5842 5842 5841 5842 5842 5843 5843 5843 5843 5843 5843 5843 5843 5842 5842 5841 5840 5840 5839 5838 5837 5835 5834 5833 5832 5831 5830 5830 5830 5830 5830 5829 5828 5828 5827 5826 5826 5825 5824 5824 5824 5823 5822 5821 5820 5819 5817 5816 5815 5813
5819 5820 5821 5823 5824 5826 5826 5826 5827 5828 5829 5830 5831 5832 5833 5835 5835 5836 5837 5837 5837 5837 5837 5837 5837 5837 5837 5837 5838 5839 5839 5840 5840 5840 5841 5841 5840 5840 5840 5840 5841 5841 5842 5842 5842 5842 5841 5841 5841 5841 5840 5840 5839 5838 5837 5836 5835 5834 5833 5832 5831 5830 5829 5829 5829 5829 5828 5828 5827 5826 5825 5825 5824 5823 5823 5823 5823 5822 5821 5819 5818 5817 5815 5814 5812
5817 5817 5819 5819 5821 5823 5824 5824 5825 5826 5827 5828 5829 5829 5830 5831 5832 5833 5834 5835 5836 5836 5836 5836 5835 5835 5835 5835 5835 5836 5837 5837 5837 5838 5838 5839 5839 5839 5839 5839 5839 5839 5839 5840 5840 5840 5840 5839 5840 5839 5839 5839 5838 5837 5837 5835 5835 5834 5833 5831 5830 5830 5829 5828 5828 5828 5827 5827 5826 5825 5824 5824 5823 5823 5822 5822 5822 5821 5820 5819 5817 5816 5815 5813 5812
5813 5814 5816 5816 5817 5819 5821 5821 5821 5823 5824 5825 5825 5825 5826 5827 5828 5830 5831 5833 5834 5834 5834 5834 5833 5833 5833 5833 5833 5834 5835 5835 5835 5835 5836 5837 5838 5838 5837 5837 5837 5837 5837 5838 5839 5838 5838 5838 5838 5838 5838 5838 5837 5837 5836 5835 5834 5833 5832 5831 5830 5829 5828 5828 5827 5827 5826 5826 5825 5824 5823 5823 5822 5822 5822 5821 5821 5820 5819 5818 5817 5815 5814 5813 5811
5810 5811 5812 5813 5813 5815 5817 5818 5818 5819 5821 5821 5822 5822 5823 5824 5825 5826 5828 5830 5831 5831 5832 5832 5831 5831 5831 5831 5831 5831 5832 5832 5833 5833 5833 5835 5836 5836 5836 5836 5836 5836 5836 5836 5837 5837 5837 5837 5837 5837 5837 5837 5837 5836 5835 5834 5834 5833 5832 5831 5830 5829 5828 5827 5826 5825 5825 5825 5824 5823 5823 5822 5822 5821 5821 5820 5820 5819 5818 5817 5816 5815 5813 5812 5811
5806 5807 5809 5810 5810 5812 5813 5814 5815 5816 5817 5818 5818 5818 5819 5821 5822 5823 5824 5826 5827 5828 5829 5829 5829 5829 5829 5829 5829 5829 5829 5830 5830 5830 5831 5833 5834 5835 5835 5835 5835 5835 5834 5834 5835 5835 5835 5836 5836 5836 5836 5836 5836 5835 5834 5834 5833 5832 5831 5830 5829 5828 5827 5826 5825 5824 5824 5823 5823 5822 5822 5821 5821 5821 5820 5820 5819 5818 5817 5816 5815 5814 5813 5811 5810
5801 5803 5805 5806 5807 5808 5810 5811 5812 5813 5814 5815 5815 5816 5816 5817 5818 5820 5821 5822 5823 5824 5825 5826 5827 5827 5827 5827 5827 5826 5827 5827 5827 5828 5829 5830 5832 5833 5833 5834 5834 5834 5833 5833 5833 5833 5834 5834 5835 5835 5835 5835 5835 5834 5834 5833 5832 5832 5831 5830 5829 5828 5827 5826 5825 5824 5823 5822 5822 5821 5821 5821 5821 5820 5820 5819 5819 5818 5817 5816 5815 5813 5812 5811 5809
5797 5799 5801 5802 5803 5805 5806 5807 5808 5809 5811 5812 5812 5813 5813 5814 5815 5816 5817 5818 5819 5820 5821 5823 5824 5824 5824 5825 5824 5824 5825 5825 5825 5826 5827 5828 5830 5831 5831 5832 5833 5833 5833 5832 5832 5832 5832 5833 5833 5833 5833 5833 5833 5833 5833 5832 5832 5831 5830 5829 5828 5827 5826 5825 5824 5823 5822 5821 5820 5820 5821 5821 5820 5820 5819 5819 5818 5818 5816 5815 5814 5812 5811 5810 5808
5792 5795 5797 5798 5800 5801 5802 5804 5805 5806 5808 5808 5809 5810 5810 5811 5811 5812 5813 5814 5815 5816 5818 5819 5820 5821 5821 5822 5822 5821 5822 5823 5823 5824 5825 5826 5827 5828 5829 5830 5831 5832 5832 5831 5831 5831 5831 5831 5831 5832 5832 5832 5832 5832 5832 5831 5831 5830 5829 5829 5828 5827 5826 5825 5823 5822 5821 5820 5819 5819 5820 5820 5820 5819 5819 5818 5818 5817 5816 5814 5813 5812 5810 5809 5808
5787 5790 5792 5794 5796 5797 5799 5800 5802 5803 5804 5804 5805 5805 5806 5806 5806 5807 5810 5811 5811 5813 5814 5815 5817 5818 5818 5818 5819 5819 5819 5820 5821 5822 5823 5824 5824 5825 5826 5827 5828 5829 5830 5830 5830 5830 5830 5829 5829 5829 5830 5830 5830 5830 5830 5830 5829 5829 5828 5828 5827 5826 5825 5824 5823 5821 5820 5819 5819 5819 5819 5819 5819 5819 5818 5818 5817 5817 5815 5814 5812 5811 5810 5809 5807
5783 5785 5788 5790 5792 5793 5795 5797 5798 5799 5799 5800 5800 5801 5801 5801 5802 5803 5805 5807 5808 5810 5811 5811 5813 5815 5814 5815 5816 5816 5816 5817 5818 5819 5821 5822 5822 5823 5824 5825 5826 5827 5827 5827 5828 5828 5828 5828 5827 5827 5828 5828 5829 5829 5828 5828 5828 5828 5827 5827 5826 5825 5824 5823 5822 5821 5820 5818 5818 5818 5818 5818 5818 5818 5817 5817 5817 5816 5815 5813 5812 5811 5809 5808 5807
5778 5780 5783 5786 5787 5789 5791 5793 5794 5794 5794 5795 5796 5796 5797 5797 5798 5799 5801 5803 5805 5807 5808 5809 5810 5811 5811 5812 5813 5813 5813 5814 5815 5816 5818 5819 5820 5821 5822 5823 5823 5824 5825 5825 5825 5826 5826 5826 5826 5826 5826 5827 5827 5827 5827 5826 5826 5826 5826 5825 5825 5824 5823 5823 5822 5821 5819 5818 5818 5817 5817 5817 5817 5817 5816 5816 5816 5815 5814 5813 5811 5810 5809 5808 5806
5773 5776 5778 5781 5782 5784 5786 5788 5790 5789 5789 5790 5790 5790 5792 5794 5794 5795 5797 5799 5801 5804 5805 5806 5806 5807 5807 5808 5810 5810 5810 5811 5813 5813 5814 5816 5817 5818 5819 5821 5821 5822 5823 5823 5823 5823 5823 5823 5823 5824 5824 5825 5825 5825 5825 5825 5825 5824 5824 5824 5823 5823 5822 5822 5821 5820 5819 5818 5818 5817 5817 5816 5816 5816 5816 5815 5815 5814 5813 5812 5811 5810 5809 5808 5806
5768 5771 5773 5776 5778 5780 5782 5783 5784 5784 5784 5785 5786 5786 5787 5789 5790 5791 5792 5794 5796 5799 5802 5802 5803 5803 5803 5804 5806 5807 5807 5809 5810 5809 5811 5814 5815 5816 5818 5818 5819 5820 5821 5821 5821 5821 5821 5821 5821 5821 5822 5822 5823 5823 5823 5823 5823 5823 5823 5822 5822 5822 5821 5820 5820 5819 5818 5818 5817 5817 5816 5816 5816 5815 5815 5814 5814 5813 5812 5812 5811 5810 5808 5807 5805
5763 5766 5768 5771 5773 5776 5777 5778 5779 5780 5780 5782 5783 5783 5784 5785 5785 5787 5788 5789 5790 5793 5796 5798 5798 5799 5799 5800 5802 5804 5804 5805 5806 5806 5809 5811 5813 5814 5815 5816 5817 5818 5819 5820 5819 5819 5818 5818 5819 5819 5820 5820 5821 5821 5821 5821 5821 5821 5821 5821 5820 5820 5820 5819 5819 5818 5817 5817 5816 5816 5816 5816 5815 5815 5814 5814 5813 5812 5812 5811 5810 5809 5808 5806 5805
5759 5761 5764 5766 5769 5771 5771 5773 5774 5775 5776 5777 5779 5781 5782 5782 5782 5783 5785 5787 5788 5788 5790 5793 5794 5795 5796 5796 5798 5800 5801 5802 5803 5803 5806 5808 5810 5810 5810 5812 5814 5815 5816 5817 5817 5817 5816 5816 5817 5817 5818 5818 5818 5819 5819 5819 5820 5820 5819 5819 5819 5818 5818 5818 5817 5817 5816 5816 5815 5815 5815 5815 5815 5814 5814 5813 5813 5812 5812 5811 5810 5809 5807 5806 5804
5755 5757 5759 5762 5764 5765 5766 5768 5770 5770 5771 5773 5775 5778 5779 5779 5779 5780 5782 5783 5785 5785 5785 5788 5790 5791 5792 5793 5795 5796 5797 5798 5799 5801 5802 5804 5806 5806 5807 5809 5811 5810 5812 5814 5814 5814 5814 5814 5814 5815 5815 5816 5816 5817 5817 5817 5818 5818 5818 5817 5817 5817 5817 5817 5816 5816 5815 5814 5814 5814 5814 5813 5813 5813 5813 5813 5813 5812 5811 5811 5810 5808 5807 5805 5804
5751 5753 5755 5757 5759 5760 5762 5764 5765 5766 5767 5769 5772 5774 5776 5776 5776 5777 5777 5778 5779 5780 5782 5784 5786 5787 5788 5789 5791 5792 5793 5794 5796 5797 5799 5800 5802 5804 5804 5806 5807 5807 5809 5810 5811 5811 5811 5811 5812 5812 5813 5813 5814 5814 5815 5815 5815 5816 5816 5816 5816 5815 5815 5815 5815 5814 5814 5813 5813 5813 5812 5812 5812 5812 5812 5812 5812 5812 5811 5810 5809 5808 5807 5805 5804
5748 5749 5751 5752 5754 5756 5758 5759 5761 5762 5763 5766 5768 5770 5771 5772 5772 5772 5773 5773 5773 5775 5778 5780 5782 5782 5783 5785 5787 5789 5790 5791 5792 5794 5795 5796 5799 5801 5801 5802 5804 5805 5806 5806 5807 5808 5808 5809 5809 5810 5811 5811 5811 5812 5812 5813 5813 5814 5814 5814 5814 5814 5814 5814 5814 5813 5813 5812 5812 5811 5811 5811 5811 5811 5811 5811 5811 5811 5811 5810 5809 5808 5807 5805 5804
5744 5745 5747 5748 5750 5752 5754 5756 5757 5758 5759 5761 5764 5766 5767 5767 5768 5769 5769 5769 5769 5771 5773 5775 5777 5777 5779 5781 5783 5785 5787 5788 5789 5790 5792 5793 5794 5796 5797 5798 5799 5802 5803 5803 5803 5804 5804 5805 5806 5807 5808 5809 5809 5810 5810 5810 5811 5811 5812 5812 5812 5812 5812 5812 5812 5812 5811 5811 5810 5810 5810 5810 5810 5810 5810 5810 5810 5810 5810 5809 5809 5808 5806 5805 5804
5740 5742 5743 5744 5746 5748 5750 5752 5753 5754 5756 5757 5759 5762 5762 5763 5764 5765 5765 5765 5766 5767 5768 5770 5772 5773 5774 5776 5778 5781 5783 5784 5785 5786 5788 5789 5791 5792 5793 5794 5795 5797 5798 5799 5800 5801 5801 5802 5802 5803 5805 5806 5806 5807 5807 5808 5808 5809 5809 5809 5810 5810 5810 5810 5810 5810 5810 5810 5809 5809 5808 5808 5808 5808 5808 5809 5809 5809 5808 5808 5808 5807 5806 5805 5804
5736 5738 5739 5741 5742 5744 5746 5748 5749 5750 5751 5753 5755 5757 5758 5760 5761 5761 5762 5763 5763 5764 5764 5765 5768 5769 5770 5772 5774 5776 5778 5780 5781 5782 5784 5785 5787 5788 5789 5791 5792 5794 5794 5795 5796 5797 5797 5798 5799 5800 5801 5802 5803 5804 5804 5805 5805 5806 5807 5807 5807 5808 5808 5808 5808 5808 5808 5808 5808 5807 5807 5807 5806 5806 5807 5807 5807 5807 5807 5806 5806 5805 5805 5803 5803
5733 5734 5736 5737 5738 5739 5741 5743 5745 5745 5747 5749 5751 5753 5754 5756 5758 5759 5760 5760 5760 5761 5761 5762 5763 5764 5766 5768 5769 5771 5773 5775 5776 5777 5778 5780 5782 5784 5785 5787 5789 5791 5791 5792 5793 5794 5793 5793 5795 5796 5797 5799 5800 5801 5801 5802 5802 5803 5804 5805 5805 5805 5806 5806 5806 5806 5806 5806 5806 5806 5805 5805 5805 5805 5805 5805 5805 5805 5805 5805 5804 5804 5803 5802 5801
5730 5731 5732 5733 5734 5736 5737 5739 5741 5742 5743 5745 5747 5750 5751 5753 5754 5755 5756 5755 5755 5756 5756 5758 5759 5760 5761 5763 5764 5766 5768 5770 5771 5772 5773 5774 5776 5779 5780 5782 5785 5787 5788 5789 5790 5791 5790 5789 5791 5792 5793 5795 5797 5797 5797 5798 5799 5800 5801 5802 5802 5803 5803 5803 5804 5804 5804 5804 5804 5804 5803 5803 5803 5803 5803 5803 5802 5802 5802 5802 5802 5802 5802 5801 5800
5728 5729 5729 5730 5732 5733 5734 5735 5737 5739 5740 5741 5742 5745 5747 5748 5749 5749 5749 5749 5749 5749 5750 5752 5753 5754 5756 5758 5760 5761 5762 5763 5764 5766 5768 5769 5771 5773 5775 5777 5780 5783 5785 5786 5787 5787 5787 5786 5787 5788 5789 5791 5793 5794 5794 5794 5795 5796 5798 5799 5799 5800 5800 5801 5801 5801 5801 5801 5801 5801 5801 5801 5801 5801 5801 5801 5800 5800 5800 5800 5800 5800 5800 5799 5799
5726 5726 5726 5727 5729 5729 5730 5731 5732 5733 5735 5735 5735 5738 5741 5742 5742 5742 5742 5743 5743 5743 5744 5744 5745 5747 5749 5751 5753 5755 5756 5757 5758 5760 5763 5765 5766 5768 5770 5772 5775 5778 5781 5782 5783 5784 5784 5783 5783 5784 5785 5787 5789 5790 5790 5791 5792 5793 5794 5795 5796 5797 5797 5798 5798 5798 5798 5797 5798 5798 5798 5798 5798 5798 5799 5799 5799 5798 5798 5798 5798 5798 5798 5798 5797
5722 5722 5722 5722 5723 5723 5723 5723 5724 5725 5726 5727 5728 5730 5732 5733 5733 5734 5734 5735 5735 5737 5739 5739 5740 5742 5744 5746 5748 5749 5751 5752 5754 5756 5758 5760 5761 5763 5765 5768 5769 5772 5775 5777 5779 5780 5780 5780 5780 5780 5781 5783 5785 5786 5786 5787 5789 5790 5791 5792 5793 5793 5794 5794 5794 5794 5794 5794 5794 5795 5796 5796 5796 5796 5796 5796 5796 5796 5796 5796 5796 5796 5796 5796 5795
5718 5718 5718 5717 5717 5717 5717 5717 5718 5718 5719 5720 5722 5724 5724 5725 5727 5727 5727 5728 5730 5732 5734 5734 5735 5737 5740 5743 5744 5745 5746 5747 5749 5751 5753 5754 5756 5759 5761 5762 5764 5767 5769 5771 5773 5774 5775 5776 5776 5776 5776 5778 5780 5782 5783 5784 5785 5786 5787 5788 5789 5790 5790 5791 5791 5791 5791 5791 5791 5791 5792 5793 5793 5793 5793 5793 5793 5793 5794 5794 5794 5793 5793 5793 5793
5714 5714 5714 5713 5713 5712 5712 5712 5712 5712 5713 5714 5716 5717 5717 5720 5722 5722 5722 5723 5726 5728 5729 5730 5730 5732 5735 5737 5738 5738 5741 5742 5743 5745 5747 5748 5751 5753 5755 5757 5759 5761 5763 5765 5767 5769 5770 5771 5772 5771 5771 5773 5774 5777 5779 5779 5780 5782 5783 5784 5785 5786 5786 5786 5787 5787 5787 5788 5788 5788 5789 5789 5790 5790 5790 5790 5790 5790 5791 5791 5791 5791 5791 5791 5791
5710 5710 5710 5709 5708 5707 5706 5706 5705 5705 5706 5707 5709 5710 5711 5713 5715 5716 5716 5718 5720 5721 5722 5723 5724 5727 5729 5731 5733 5735 5738 5739 5739 5741 5742 5743 5745 5747 5749 5750 5751 5753 5756 5760 5762 5764 5765 5766 5767 5767 5767 5767 5769 5771 5773 5774 5775 5777 5778 5779 5780 5781 5781 5782 5783 5783 5783 5784 5785 5785 5785 5786 5786 5787 5787 5787 5787 5788 5788 5788 5789 5788 5788 5788 5788
5706 5706 5705 5705 5703 5702 5701 5700 5699 5699 5699 5700 5701 5703 5705 5706 5708 5709 5710 5712 5713 5713 5713 5715 5718 5721 5724 5726 5728 5730 5732 5732 5733 5735 5737 5737 5739 5741 5742 5743 5743 5745 5749 5753 5755 5758 5760 5760 5761 5762 5762 5763 5764 5765 5767 5768 5770 5772 5773 5773 5774 5775 5776 5777 5778 5778 5779 5779 5780 5781 5781 5782 5783 5783 5783 5784 5784 5785 5784 5785 5785 5785 5785 5785 5785
5702 5701 5701 5700 5699 5698 5696 5694 5693 5693 5693 5693 5694 5696 5697 5699 5701 5703 5704 5706 5707 5708 5709 5711 5713 5715 5718 5720 5721 5722 5723 5723 5725 5727 5729 5730 5731 5734 5736 5736 5737 5738 5740 5744 5746 5749 5752 5753 5754 5756 5757 5758 5760 5760 5761 5762 5763 5765 5766 5767 5768 5770 5770 5771 5773 5774 5774 5775 5775 5776 5777 5778 5779 5779 5780 5781 5781 5781 5781 5781 5782 5781 5781 5781 5782
5698 5697 5697 5696 5695 5693 5691 5690 5688 5687 5687 5687 5688 5689 5690 5692 5694 5696 5698 5700 5701 5702 5703 5705 5707 5709 5711 5713 5714 5715 5716 5717 5719 5720 5720 5722 5724 5726 5727 5728 5730 5730 5732 5735 5737 5739 5742 5744 5748 5750 5751 5752 5754 5754 5755 5756 5756 5758 5760 5761 5762 5764 5764 5765 5767 5768 5769 5770 5770 5771 5771 5773 5774 5775 5776 5778 5778 5778 5777 5778 5778 5777 5777 5778 5778
5695 5694 5693 5692 5691 5690 5688 5686 5684 5684 5683 5683 5683 5684 5685 5686 5688 5689 5691 5693 5694 5696 5697 5699 5701 5702 5704 5706 5707 5708 5709 5711 5713 5714 5714 5715 5717 5718 5719 5720 5722 5723 5724 5727 5729 5731 5733 5735 5738 5741 5742 5744 5746 5746 5747 5750 5750 5751 5753 5755 5756 5758 5759 5760 5762 5763 5763 5764 5765 5766 5766 5768 5769 5771 5772 5773 5774 5774 5774 5774 5774 5774 5774 5774 5774
5693 5692 5691 5690 5689 5687 5686 5684 5682 5681 5681 5680 5680 5680 5681 5681 5683 5684 5685 5687 5689 5690 5692 5693 5695 5696 5698 5699 5700 5700 5703 5706 5707 5708 5709 5710 5711 5712 5713 5714 5715 5716 5718 5719 5722 5725 5726 5726 5729 5732 5735 5737 5738 5739 5741 5743 5744 5745 5747 5749 5750 5751 5753 5755 5757 5757 5757 5758 5759 5760 5761 5762 5764 5766 5767 5768 5769 5770 5769 5770 5770 5770 5771 5770 5770
5692 5691 5690 5688 5687 5685 5684 5682 5681 5680 5679 5678 5678 5678 5678 5678 5679 5680 5680 5682 5683 5685 5687 5688 5689 5690 5692 5693 5693 5694 5697 5700 5700 5701 5703 5705 5706 5707 5708 5708 5709 5710 5711 5713 5715 5717 5718 5719 5721 5725 5728 5730 5731 5734 5735 5736 5737 5739 5740 5742 5743 5744 5745 5748 5751 5752 5751 5752 5753 5754 5756 5757 5758 5760 5762 5763 5763 5764 5764 5765 5766 5766 5767 5767 5767
5690 5689 5688 5687 5685 5684 5682 5681 5680 5678 5677 5677 5676 5675 5675 5675 5675 5676 5676 5677 5678 5680 5681 5682 5683 5685 5686 5687 5688 5688 5691 5693 5693 5694 5697 5698 5699 5701 5702 5702 5703 5704 5705 5706 5707 5709 5711 5713 5715 5718 5721 5723 5724 5727 5729 5729 5730 5732 5734 5736 5736 5735 5737 5740 5742 5743 5744 5746 5748 5748 5750 5753 5752 5753 5755 5756 5757 5758 5759 5760 5761 5761 5762 5763 5763
5688 5687 5686 5685 5684 5683 5681 5679 5678 5677 5676 5675 5674 5673 5673 5672 5672 5672 5672 5673 5673 5675 5676 5677 5678 5679 5680 5681 5682 5683 5685 5687 5687 5688 5690 5691 5692 5693 5694 5696 5697 5698 5698 5699 5700 5702 5703 5705 5708 5711 5714 5716 5717 5720 5721 5722 5723 5725 5727 5728 5728 5729 5731 5733 5734 5734 5736 5739 5741 5742 5745 5748 5747 5747 5749 5750 5750 5751 5753 5755 5755 5756 5756 5758 5758
5687 5686 5684 5683 5682 5681 5680 5678 5677 5675 5674 5673 5672 5672 5671 5670 5669 5669 5669 5669 5669 5669 5671 5672 5673 5674 5675 5676 5677 5678 5680 5681 5682 5683 5684 5685 5686 5687 5688 5689 5690 5691 5692 5692 5693 5695 5697 5698 5701 5703 5706 5709 5710 5712 5714 5714 5715 5718 5719 5719 5720 5722 5724 5725 5726 5727 5730 5733 5735 5736 5739 5742 5741 5741 5743 5743 5743 5745 5747 5748 5749 5750 5750 5751 5752
5685 5684 5683 5682 5681 5679 5678 5677 5675 5674 5673 5671 5670 5669 5668 5667 5667 5666 5666 5666 5665 5665 5665 5666 5667 5668 5669 5670 5671 5672 5674 5675 5676 5677 5678 5679 5680 5681 5681 5682 5683 5684 5684 5685 5686 5689 5691 5692 5694 5696 5698 5700 5702 5704 5706 5707 5708 5710 5710 5711 5714 5715 5715 5717 5719 5722 5724 5726 5728 5729 5731 5734 5735 5736 5736 5736 5737 5739 5741 5741 5743 5744 5744 5744 5744
5683 5682 5681 5680 5679 5678 5676 5675 5674 5673 5671 5670 5668 5667 5666 5665 5664 5663 5663 5662 5662 5662 5661 5661 5661 5662 5663 5664 5665 5666 5667 5668 5669 5671 5672 5673 5674 5674 5675 5676 5677 5678 5678 5679 5681 5682 5683 5685 5687 5689 5691 5693 5694 5696 5698 5699 5700 5701 5702 5705 5708 5708 5707 5709 5712 5715 5717 5719 5720 5721 5722 5724 5727 5728 5728 5727 5729 5734 5736 5735 5736 5737 5738 5739 5739
5681 5680 5679 5678 5677 5676 5674 5673 5672 5671 5670 5668 5667 5665 5664 5663 5662 5661 5660 5659 5659 5658 5658 5657 5657 5657 5657 5658 5659 5660 5660 5661 5662 5663 5664 5666 5667 5668 5668 5669 5670 5671 5671 5673 5674 5675 5676 5677 5679 5681 5683 5685 5687 5689 5691 5692 5692 5693 5695 5698 5700 5700 5700 5702 5705 5706 5708 5711 5715 5715 5713 5716 5720 5722 5721 5720 5721 5726 5730 5730 5730 5731 5732 5733 5734